Change the Weather History Date:

Tuesday, January 8, 2013

  Actual Average (KDHN) Record (KDHN)
Temperature  
Mean Temperature 56 °F 48 °F  
Max Temperature 66 °F 60 °F 80 °F (1946)
Min Temperature 45 °F 38 °F 16 °F (2015)
Degree Days  
Heating Degree Days 10 17  
Month to date heating degree days 132  
Since 1 July heating degree days 845  
Growing Degree Days 6 (Base 50)    
Moisture  
Dew Point 45 °F    
Average Humidity 68    
Maximum Humidity 75    
Minimum Humidity 54    
Precipitation  
Precipitation 0.00 in 0.12 in 2.79 in (1964)
Month to date precipitation 1.17  
Year to date precipitation 1.17  
Sea Level Pressure  
Sea Level Pressure 30.24 in    
Wind  
Wind Speed 3 mph (ENE)    
Max Wind Speed 7 mph    
Max Gust Speed -    
Visibility 10 miles    
Events      
T = Trace of Precipitation, MM = Missing Value Source: NWS Daily Summary

Daily Weather History Graph

Daily Weather History Graph

Search for Another Location

Airport or City:

Trip Planner

Search our weather history database for the weather conditions in past years. The results will help you decide how hot, cold, wet, or windy it might be!

Date:

Astronomy

Jan. 08, 2013 Rise Set
Actual Time 6:42 AM CST 4:56 PM CST
Civil Twilight 6:16 AM CST 5:23 PM CST
Nautical Twilight 5:46 AM CST 5:53 PM CST
Astronomical Twilight 5:17 AM CST 6:22 PM CST
Moon 3:16 AM CST (1/8) 1:58 PM CST (1/8)
Length of Visible Light 11h 07m
Length of Day
10h 14m
Waning Crescent, 13% of the Moon is Illuminated
Jan 8
Waning Crescent
Jan 11
New
Jan 18
First Quarter
Jan 26
Full
Feb 3
Last Quarter

Hourly Weather History & Observations

Time (CST) Temp. Windchill Dew Point Humidity Pressure Visibility Wind Dir Wind Speed Gust Speed Precip Events Conditions
12:53 AM 45.0 °F 43.5 °F 37.0 °F 74% 30.24 in 10.0 mi ENE 3.5 mph - N/A   Clear
1:53 AM 46.0 °F 44.8 °F 36.0 °F 68% 30.23 in 10.0 mi NE 3.5 mph - N/A   Clear
2:53 AM 46.0 °F 43.9 °F 37.0 °F 71% 30.23 in 10.0 mi ENE 4.6 mph - N/A   Mostly Cloudy
3:53 AM 45.0 °F 43.5 °F 36.0 °F 71% 30.23 in 10.0 mi NE 3.5 mph - N/A   Clear
4:44 AM 46.4 °F 45.2 °F 37.4 °F 71% 30.23 in 10.0 mi ENE 3.5 mph - N/A   Overcast
4:53 AM 45.0 °F 43.5 °F 37.0 °F 74% 30.23 in 10.0 mi ENE 3.5 mph - N/A   Overcast
5:02 AM 46.4 °F 45.2 °F 37.4 °F 71% 30.24 in 10.0 mi ENE 3.5 mph - N/A   Overcast
5:53 AM 46.9 °F - 37.0 °F 68% 30.25 in 10.0 mi Calm Calm - N/A   Overcast
6:06 AM 46.4 °F 45.2 °F 37.4 °F 71% 30.25 in 10.0 mi Variable 3.5 mph - N/A   Overcast
6:53 AM 48.0 °F - 37.9 °F 68% 30.27 in 10.0 mi ENE 4.6 mph - N/A   Overcast
7:25 AM 48.2 °F - 39.2 °F 71% 30.28 in 10.0 mi East 4.6 mph - N/A   Overcast
7:53 AM 50.0 °F - 39.0 °F 66% 30.29 in 10.0 mi ESE 3.5 mph - N/A   Overcast
8:53 AM 52.0 °F - 39.9 °F 63% 30.30 in 10.0 mi ENE 4.6 mph - N/A   Overcast
9:53 AM 54.0 °F - 43.0 °F 66% 30.29 in 10.0 mi East 3.5 mph - 0.00 in   Overcast
10:53 AM 59.0 °F - 46.0 °F 62% 30.27 in 10.0 mi Calm Calm - N/A   Overcast
11:20 AM 59.0 °F - 46.4 °F 63% 30.27 in 10.0 mi Calm Calm - N/A   Overcast
11:53 AM 61.0 °F - 46.9 °F 60% 30.25 in 10.0 mi Variable 4.6 mph - N/A   Overcast
12:53 PM 64.0 °F - 48.0 °F 56% 30.23 in 10.0 mi NNE 5.8 mph - N/A   Overcast
1:53 PM 66.0 °F - 48.9 °F 54% 30.21 in 10.0 mi Variable 3.5 mph - N/A   Overcast
2:53 PM 66.9 °F - 51.1 °F 57% 30.20 in 10.0 mi ENE 3.5 mph - N/A   Mostly Cloudy
3:53 PM 66.9 °F - 52.0 °F 59% 30.21 in 10.0 mi Calm Calm - N/A   Overcast
4:53 PM 64.9 °F - 53.1 °F 65% 30.22 in 10.0 mi NNE 3.5 mph - N/A   Overcast
5:53 PM 64.0 °F - 53.1 °F 67% 30.22 in 10.0 mi Calm Calm - N/A   Overcast
6:53 PM 63.0 °F - 52.0 °F 67% 30.22 in 10.0 mi Calm Calm - N/A   Overcast
7:53 PM 61.0 °F - 52.0 °F 72% 30.23 in 10.0 mi Calm Calm - N/A   Clear
8:53 PM 60.1 °F - 52.0 °F 75% 30.23 in 10.0 mi ENE 3.5 mph - N/A   Partly Cloudy
9:53 PM 60.1 °F - 51.1 °F 72% 30.24 in 10.0 mi Variable 3.5 mph - N/A   Partly Cloudy
10:53 PM 59.0 °F - 51.1 °F 75% 30.24 in 10.0 mi Variable 3.5 mph - N/A   Scattered Clouds
11:06 PM 60.8 °F - 51.8 °F 72% 30.24 in 10.0 mi ENE 6.9 mph - N/A   Mostly Cloudy
11:38 PM 60.8 °F - 51.8 °F 72% 30.24 in 10.0 mi Variable 3.5 mph - N/A   Overcast
11:53 PM 61.0 °F - 52.0 °F 72% 30.24 in 10.0 mi Variable 4.6 mph - N/A   Overcast